Orangeburg, SC

11:15 AM EDT on April 26, 2017 (GMT -0400)
Orangeburg Municipal

Weather History for KOGB - July, 2014

Change the Weather History Date:

Wednesday, July 30, 2014

  Actual Average Record
Temperature  
Mean Temperature 79 °F 82 °F  
Max Temperature 87 °F 92 °F 100 °F (1981)
Min Temperature 71 °F 72 °F 61 °F (1983)
Degree Days  
Heating Degree Days 0 0  
Month to date heating degree days 0 0  
Since 1 June heating degree days 0 1  
Since 1 July heating degree days 0 0  
Cooling Degree Days 14 17  
Month to date cooling degree days 495 503  
Year to date cooling degree days 1292 1204  
Since 1 June cooling degree days 937 901  
Growing Degree Days 28 (Base 50)    
Moisture  
Dew Point 65 °F    
Average Humidity 70    
Maximum Humidity 84    
Minimum Humidity 50    
Precipitation  
Precipitation 0.05 in 0.14 in 1.35 in (1958)
Month to date precipitation 5.38 5.15  
Year to date precipitation 31.12 27.89  
Sea Level Pressure  
Sea Level Pressure 30.00 in    
Wind  
Wind Speed 5 mph (ENE)    
Max Wind Speed 22 mph    
Max Gust Speed 27 mph    
Visibility 10 miles    
Events Rain    
T = Trace of Precipitation, MM = Missing Value Source: NWS Daily Summary

Daily Weather History Graph

Daily Weather History Graph

Search for Another Location

Airport or City:

Trip Planner

Search our weather history database for the weather conditions in past years. The results will help you decide how hot, cold, wet, or windy it might be!

Date:

Astronomy

Jul. 30, 2014 Rise Set
Actual Time 6:34 AM EDT 8:24 PM EDT
Civil Twilight 6:07 AM EDT 8:52 PM EDT
Nautical Twilight 5:34 AM EDT 9:24 PM EDT
Astronomical Twilight 4:59 AM EDT 9:59 PM EDT
Moon 9:52 AM EDT (7/30) 10:20 PM EDT (7/30)
Length of Visible Light 14h 44m
Length of Day
13h 50m
Waxing Crescent, 12% of the Moon is Illuminated
Jul 30
Waxing Crescent
Aug 3
First Quarter
Aug 10
Full
Aug 17
Last Quarter
Aug 25
New

Hourly Weather History & Observations

Time (EDT) Temp. Heat Index Dew Point Humidity Pressure Visibility Wind Dir Wind Speed Gust Speed Precip Events Conditions
12:53 AM 73.9 °F - 63.0 °F 68% 29.96 in 10.0 mi ENE 3.5 mph - N/A   Overcast
2:53 AM 73.0 °F - 63.0 °F 71% 29.96 in 10.0 mi ENE 3.5 mph - N/A   Overcast
3:53 AM 73.0 °F - 62.1 °F 68% 29.95 in 10.0 mi NE 5.8 mph - N/A   Overcast
4:53 AM 73.0 °F - 62.1 °F 68% 29.96 in 10.0 mi ENE 3.5 mph - N/A   Overcast
5:53 AM 72.0 °F - 62.1 °F 71% 29.97 in 10.0 mi ENE 3.5 mph - N/A   Partly Cloudy
6:53 AM 72.0 °F - 62.1 °F 71% 29.99 in 10.0 mi North 6.9 mph - N/A   Mostly Cloudy
7:53 AM 73.0 °F - 62.1 °F 68% 30.00 in 10.0 mi NE 8.1 mph - N/A   Scattered Clouds
8:53 AM 75.0 °F - 62.1 °F 64% 30.01 in 10.0 mi ENE 8.1 mph - N/A   Clear
9:53 AM 78.1 °F - 64.0 °F 62% 30.01 in 10.0 mi ENE 6.9 mph - N/A   Clear
10:53 AM 81.0 °F 82.7 °F 64.9 °F 58% 30.02 in 10.0 mi Variable 6.9 mph - N/A   Clear
11:53 AM 84.0 °F 86.5 °F 66.9 °F 56% 30.02 in 10.0 mi ENE 6.9 mph - N/A   Scattered Clouds
1:53 PM 84.9 °F 87.1 °F 66.0 °F 53% 30.00 in 10.0 mi East 6.9 mph - N/A   Mostly Cloudy
2:53 PM 84.0 °F 85.4 °F 64.0 °F 51% 30.00 in 10.0 mi East 5.8 mph - N/A   Overcast
3:37 PM 73.9 °F - 68.0 °F 82% 30.02 in 5.0 mi SW 15.0 mph 26.5 mph 0.03 in Rain Rain
3:53 PM 73.9 °F - 70.0 °F 87% 30.01 in 5.0 mi SW 15.0 mph - 0.05 in Rain Light Rain
4:53 PM 75.0 °F - 69.1 °F 82% 30.01 in 10.0 mi ENE 5.8 mph - 0.00 in   Overcast
5:53 PM 75.0 °F - 68.0 °F 79% 30.00 in 10.0 mi ENE 6.9 mph - 0.00 in   Overcast
6:53 PM 75.9 °F - 66.9 °F 74% 30.01 in 10.0 mi SSE 3.5 mph - N/A   Overcast
8:53 PM 73.9 °F - 68.0 °F 82% 30.01 in 10.0 mi Calm Calm - N/A   Clear
9:53 PM 73.0 °F - 68.0 °F 84% 30.03 in 10.0 mi ESE 3.5 mph - N/A   Clear